Location: Harwich
(41.7160°N, 69.9939°W)
Time: 16:47:04
(UTC+02:00)

A-11 Canister half - Pass Details

Date: 02 December 2023
Orbit: 1524 x 1684 km, 47.3° (Epoch: 24 June)

Event Time Altitude Azimuth Distance (km) Brightness Sun altitude
Rises 00:22:33 0° 211° (SSW) 4,915 12.2 -24.1°
Reaches altitude 10° 00:25:52 10° 205° (SSW) 3,935 11.5 -24.7°
Maximum altitude 00:35:19 46° 137° (SE) 2,143 9.4 -26.4°
Enters shadow 00:37:19 42° 108° (ESE) 2,255 9.4 -26.8°
Drops below altitude 10° 00:44:41 10° 68° (ENE) 3,913 - -28.2°
Sets 00:47:58 0° 63° (ENE) 4,885 - -28.8°
